Hourly Data Report for May 22, 2004

SHERBROOKE A
QUEBEC

45°26'00.000" N
71°41'00.000" W
241.40 m
7028124
71610
YSC

Download Data

Hourly Data (May 2004)
Hourly Data Report for May 22, 2004
TIME
LST
Temp Definition
°C
Dew Point Definition
°C
Rel Hum Definition
%
Precip. Amount Definition
mm

Wind Dir Definition
10's deg

Wind Spd Definition
km/h
Visibility Definition
km
Stn Press Definition
kPa
Hmdx Definition


Wind Chill Definition


Weather Definition


00:00 6.4 2.9 78   11 4 15.0 99.06      
01:00 6.4 2.6 77   8 7 15.0 98.96      
02:00 6.3 1.8 73   8 6 15.0 98.90      
03:00 5.8 2.3 78   5 6 15.0 98.90      
04:00 5.7 2.4 79   6 7 15.0 98.93      
05:00 6.2 3.0 80   4 6 15.0 98.90      
06:00 6.8 3.2 78   7 11 15.0 98.83      
07:00 8.2 3.6 73   7 7 24.1 98.79     Mostly Cloudy
08:00 9.6 4.0 68   5 7 24.1 98.74     Mostly Cloudy
09:00 11.7 3.4 57   5 7 24.1 98.80     Mostly Cloudy
10:00 13.2 3.5 52   18 6 24.1 98.81     Mostly Cloudy
11:00 13.9 3.7 50   15 11 24.1 98.74     Mostly Cloudy
12:00 14.6 5.1 53   18 13 24.1 98.69     Mostly Cloudy
13:00 13.5 5.2 57   21 9 24.1 98.69     Mostly Cloudy
14:00 14.5 5.8 56   17 7 24.1 98.65     Mostly Cloudy
15:00 15.6 7.0 57   14 9 24.1 98.57     Mostly Cloudy
16:00 16.0 7.9 59   20 6 24.1 98.52     Mostly Cloudy
17:00 14.6 8.2 65   23 9 15.0 98.51      
18:00 13.8 8.3 69   23 6 15.0 98.50      
19:00 12.4 8.4 77   23 6 15.0 98.47      
20:00 11.4 8.2 81   23 6 15.0 98.47      
21:00 11.4 8.2 81     0 15.0 98.43      
22:00 10.0 8.3 89     0 15.0 98.42      
23:00 10.7 7.7 82   12 7 15.0 98.37     Rain

Notes on Data Quality.

Legend

  • E = Estimated
  • M = Missing
  • NA = Not Available*
  • [empty] = Indicates an unobserved value
Date modified: